Tracking 25648 objects as of 17-May-2022
HD Live streaming from Space Station
objects crossing your sky now

CZ-3A DEB

Track CZ-3A DEB now!


NORAD ID: 39598
Int'l Code: 2007-003AK
Perigee: 806.1 km
Apogee: 43,030.3 km
Inclination: 26.8 °
Period: 789.2 minutes
Semi major axis: 28289 km
RCS: Unknown
Launch date: February 2, 2007
Source: People's Republic of China (PRC)
Launch site: Xichang Space Center, China (XSC)

Note: This is SATELLITE DEBRIS
aabbcc
Your satellite tracking list
Your tracking list is empty




NASA's NSSDC Master Catalog

Two Line Element Set (TLE):
1 39598U 07003AK  22133.98854689 -.00000424  00000-0 -78033-2 0  9997
2 39598  26.7725  35.0105 7462963  30.3070  58.7880  1.82461826 80898
Source of the keplerian elements: AFSPC